contact:dominique.lefevre@mio.osupytheas.fr, maurice.libes@osupytheas.fr, didier.mallarino@osupytheas.fr
Project:EMSO http://www.emso-fr.org/EMSO-France
Depth: 2436.0 m
Title:EMSO Ligure Ouest : Data MII capteur AQUADOPP
Date,Latitude,Longitude,X_East,Y_North,Z_Up,Amplitude_X,Amplitude_Y,Amplitude_Z,Batterie,SoundSpeed,Heading,Pitch,Roll,Pressure,TIS,Speed,Direction
, degrees North, degrees East, m.s-1, m.s-1,m.s-1, 1, 1, 1, Volt, m.s-1, degree, degree, degree, dbar, degree_C, m.s-1, degree
2023-02-28T00:04:03,42.805,6.029,-0.005,-0.014,-0.044,105.0,106.0,104.0,13.4,1505.2,318.3,-0.8,1.8,2471.273,13.29,0.014,199.6
2023-02-28T00:07:03,42.805,6.029,-0.01,0.009,-0.038,104.0,105.0,104.0,13.4,1505.2,320.7,-0.7,1.8,2471.283,13.29,0.013,312.0
2023-02-28T00:10:03,42.805,6.029,-0.018,-0.006,-0.022,106.0,105.0,104.0,13.4,1505.2,322.7,-0.7,1.8,2471.283,13.29,0.018,251.6
2023-02-28T00:13:03,42.805,6.029,-0.001,-0.005,-0.039,106.0,105.0,103.0,13.4,1505.2,330.9,-0.8,1.8,2471.254,13.29,0.005,191.3
2023-02-28T00:16:03,42.805,6.029,-0.006,0.003,-0.016,106.0,104.0,103.0,13.3,1505.2,329.3,-0.8,1.8,2471.286,13.29,0.006,296.6
2023-02-28T00:19:03,42.805,6.029,0.001,0.01,-0.013,106.0,105.0,104.0,13.3,1505.2,329.3,-0.8,1.8,2471.248,13.29,0.01,5.7
2023-02-28T00:22:03,42.805,6.029,-0.018,-0.006,-0.014,106.0,104.0,104.0,13.4,1505.2,331.6,-0.8,1.8,2471.228,13.29,0.018,251.6
2023-02-28T00:25:03,42.805,6.029,-0.005,-0.021,-0.044,107.0,104.0,103.0,13.3,1505.2,325.1,-0.8,1.8,2471.201,13.29,0.021,193.4
2023-02-28T00:28:03,42.805,6.029,-0.01,-0.014,-0.013,106.0,109.0,105.0,13.3,1505.2,320.5,-0.8,1.8,2471.231,13.29,0.017,215.5
2023-02-28T00:31:03,42.805,6.029,-0.03,0.003,-0.013,105.0,105.0,105.0,13.4,1505.2,331.4,-0.8,1.8,2471.296,13.29,0.03,275.7
2023-02-28T00:34:03,42.805,6.029,-0.023,-0.018,-0.003,106.0,105.0,104.0,13.4,1505.2,323.7,-0.7,1.8,2471.18,13.29,0.029,232.0
2023-02-28T00:37:03,42.805,6.029,-0.021,-0.005,-0.031,106.0,104.0,104.0,13.4,1505.2,331.2,-0.8,1.8,2471.255,13.29,0.021,256.6
2023-02-28T00:40:03,42.805,6.029,-0.026,-0.005,-0.015,106.0,105.0,104.0,13.4,1505.2,323.4,-0.8,1.8,2471.216,13.29,0.026,259.1
2023-02-28T00:43:03,42.805,6.029,-0.037,-0.021,-0.033,105.0,105.0,104.0,13.4,1505.2,319.8,-0.8,1.8,2471.255,13.29,0.042,240.4
2023-02-28T00:46:03,42.805,6.029,-0.002,-0.022,-0.012,106.0,103.0,105.0,13.3,1505.2,336.2,-0.8,1.8,2471.248,13.29,0.022,185.2
2023-02-28T00:49:03,42.805,6.029,-0.026,-0.01,-0.039,106.0,105.0,104.0,13.4,1505.2,332.9,-0.8,1.9,2471.245,13.29,0.027,249.0
2023-02-28T00:52:03,42.805,6.029,0.012,-0.025,-0.056,105.0,105.0,104.0,13.4,1505.2,322.7,-0.7,1.8,2471.23,13.29,0.027,154.4
2023-02-28T00:55:03,42.805,6.029,-0.023,0.003,-0.01,105.0,106.0,104.0,13.4,1505.2,327.0,-0.8,1.8,2471.245,13.29,0.023,277.4
2023-02-28T00:58:03,42.805,6.029,-0.005,0.006,0.015,105.0,106.0,104.0,13.4,1505.2,323.4,-0.8,1.8,2471.245,13.29,0.007,320.2
2023-02-28T01:04:03,42.805,6.029,-0.024,0.004,-0.01,107.0,107.0,107.0,13.3,1505.2,332.1,-0.8,1.8,2471.273,13.28,0.024,279.5
2023-02-28T01:07:02,42.805,6.029,-0.016,0.004,-0.003,107.0,111.0,105.0,13.4,1505.2,333.4,-0.7,1.8,2471.27,13.29,0.016,284.0
2023-02-28T01:10:03,42.805,6.029,-0.025,0.004,-0.042,105.0,104.0,104.0,13.3,1505.2,317.6,-0.8,1.8,2471.272,13.29,0.025,279.1
2023-02-28T01:13:03,42.805,6.029,-0.015,0.004,-0.032,106.0,106.0,105.0,13.4,1505.2,326.0,-0.8,1.8,2471.284,13.29,0.015,284.9
2023-02-28T01:16:03,42.805,6.029,-0.01,0.003,-0.019,107.0,104.0,105.0,13.4,1505.2,329.3,-0.7,1.8,2471.25,13.29,0.01,286.7
2023-02-28T01:19:03,42.805,6.029,-0.022,-0.002,-0.016,106.0,106.0,105.0,13.3,1505.2,315.0,-0.8,1.8,2471.27,13.29,0.022,264.8
2023-02-28T01:22:03,42.805,6.029,-0.016,0.0,-0.041,107.0,106.0,103.0,13.4,1505.2,323.4,-0.8,1.8,2471.209,13.29,0.016,270.0
2023-02-28T01:25:03,42.805,6.029,-0.022,-0.001,-0.038,107.0,105.0,104.0,13.4,1505.2,333.0,-0.8,1.8,2471.241,13.29,0.022,267.4
2023-02-28T01:28:03,42.805,6.029,-0.014,-0.023,-0.029,106.0,105.0,104.0,13.3,1505.2,321.1,-0.8,1.8,2471.232,13.29,0.026,211.3
2023-02-28T01:31:03,42.805,6.029,-0.021,0.001,-0.021,106.0,106.0,105.0,13.4,1505.2,329.3,-0.8,1.8,2471.243,13.29,0.021,272.7
2023-02-28T01:34:03,42.805,6.029,-0.018,0.006,-0.018,105.0,106.0,105.0,13.3,1505.2,325.7,-0.8,1.8,2471.272,13.29,0.018,288.4
2023-02-28T01:37:03,42.805,6.029,-0.027,0.0,-0.004,106.0,106.0,105.0,13.4,1505.2,335.9,-0.8,1.8,2471.244,13.29,0.026,270.0
2023-02-28T01:40:03,42.805,6.029,-0.013,-0.017,-0.017,106.0,106.0,104.0,13.3,1505.2,316.2,-0.8,1.8,2471.244,13.29,0.021,217.4
2023-02-28T01:43:03,42.805,6.029,-0.021,-0.012,-0.047,105.0,106.0,104.0,13.4,1505.2,317.7,-0.8,1.8,2471.253,13.29,0.024,240.3
2023-02-28T01:46:03,42.805,6.029,-0.023,-0.01,-0.029,107.0,106.0,106.0,13.4,1505.2,318.0,-0.8,1.8,2471.232,13.29,0.025,246.5
2023-02-28T01:49:03,42.805,6.029,-0.01,-0.003,-0.013,107.0,106.0,104.0,13.4,1505.2,326.8,-0.8,1.8,2471.22,13.29,0.01,253.3
2023-02-28T01:52:03,42.805,6.029,0.001,-0.019,-0.023,107.0,106.0,105.0,13.4,1505.2,316.7,-0.8,1.8,2471.267,13.29,0.019,177.0
2023-02-28T01:55:03,42.805,6.029,-0.026,0.0,-0.041,107.0,105.0,105.0,13.4,1505.2,326.7,-0.7,1.8,2471.237,13.29,0.026,270.0
2023-02-28T01:58:03,42.805,6.029,0.0,-0.001,-0.015,104.0,105.0,103.0,13.3,1505.2,333.4,-0.8,1.8,2471.217,13.29,0.001,180.0
2023-02-28T02:04:03,42.805,6.029,-0.009,-0.018,-0.013,106.0,105.0,104.0,13.3,1505.2,323.1,-0.8,1.8,2471.296,13.28,0.02,206.6
2023-02-28T02:07:03,42.805,6.029,-0.022,0.0,-0.012,106.0,105.0,104.0,13.4,1505.2,330.1,-0.8,1.8,2471.284,13.29,0.022,270.0
2023-02-28T02:10:03,42.805,6.029,-0.012,-0.02,-0.021,106.0,105.0,104.0,13.4,1505.2,316.6,-0.8,1.8,2471.278,13.29,0.023,211.0
2023-02-28T02:13:03,42.805,6.029,-0.015,-0.007,-0.017,107.0,105.0,105.0,13.4,1505.2,333.8,-0.8,1.8,2471.239,13.29,0.016,245.0
2023-02-28T02:16:03,42.805,6.029,-0.022,-0.015,-0.04,106.0,104.0,106.0,13.3,1505.2,327.6,-0.8,1.8,2471.275,13.29,0.026,235.7
2023-02-28T02:19:03,42.805,6.029,-0.02,0.001,-0.002,106.0,105.0,105.0,13.4,1505.2,321.3,-0.8,1.8,2471.263,13.29,0.02,272.9
2023-02-28T02:22:03,42.805,6.029,-0.027,-0.002,-0.029,106.0,106.0,104.0,13.4,1505.2,333.4,-0.7,1.8,2471.28,13.29,0.027,265.8
2023-02-28T02:25:03,42.805,6.029,-0.021,-0.036,-0.012,106.0,106.0,103.0,13.3,1505.2,330.3,-0.8,1.8,2471.291,13.29,0.041,210.3
2023-02-28T02:28:03,42.805,6.029,-0.028,-0.012,-0.022,106.0,106.0,104.0,13.3,1505.2,334.2,-0.7,1.8,2471.278,13.29,0.03,246.8
2023-02-28T02:31:03,42.805,6.029,0.0,-0.005,-0.028,106.0,105.0,104.0,13.4,1505.2,315.0,-0.7,1.8,2471.243,13.29,0.005,180.0
2023-02-28T02:34:03,42.805,6.029,-0.016,-0.027,-0.023,106.0,106.0,104.0,13.4,1505.2,320.7,-0.8,1.8,2471.27,13.29,0.031,210.7
2023-02-28T02:37:03,42.805,6.029,-0.03,0.006,-0.022,105.0,105.0,105.0,13.3,1505.2,323.7,-0.8,1.8,2471.256,13.29,0.03,281.3
2023-02-28T02:40:03,42.805,6.029,-0.025,-0.007,-0.025,105.0,105.0,106.0,13.4,1505.2,332.1,-0.8,1.8,2471.239,13.29,0.025,254.4
2023-02-28T02:43:03,42.805,6.029,-0.017,-0.002,-0.011,106.0,104.0,106.0,13.4,1505.2,341.2,-0.8,1.8,2471.247,13.29,0.017,263.3
2023-02-28T02:46:03,42.805,6.029,-0.023,-0.015,-0.05,106.0,111.0,104.0,13.3,1505.2,323.6,-0.8,1.8,2471.272,13.29,0.027,236.9
2023-02-28T02:49:03,42.805,6.029,-0.029,0.013,-0.022,106.0,107.0,103.0,13.4,1505.2,323.6,-0.8,1.8,2471.251,13.29,0.031,294.1
2023-02-28T02:52:03,42.805,6.029,-0.037,0.006,-0.042,107.0,103.0,105.0,13.4,1505.2,338.2,-0.8,1.8,2471.244,13.29,0.037,279.2
2023-02-28T02:55:03,42.805,6.029,-0.032,-0.012,-0.013,106.0,104.0,103.0,13.4,1505.2,332.4,-0.7,1.8,2471.227,13.29,0.034,249.4
2023-02-28T02:58:03,42.805,6.029,-0.025,0.0,-0.026,106.0,104.0,105.0,13.4,1505.2,326.3,-0.7,1.8,2471.242,13.29,0.025,270.0
2023-02-28T03:04:03,42.805,6.029,-0.017,-0.014,-0.031,107.0,106.0,104.0,13.4,1505.2,319.0,-0.8,1.8,2471.284,13.28,0.022,230.5
2023-02-28T03:07:03,42.805,6.029,-0.001,-0.015,-0.049,106.0,107.0,105.0,13.4,1505.2,333.4,-0.8,1.8,2471.292,13.28,0.015,183.8
2023-02-28T03:10:03,42.805,6.029,-0.037,-0.003,-0.041,106.0,106.0,104.0,13.3,1505.2,331.8,-0.8,1.8,2471.235,13.29,0.037,265.4
2023-02-28T03:13:03,42.805,6.029,-0.033,-0.018,-0.017,107.0,107.0,104.0,13.3,1505.2,331.1,-0.8,1.8,2471.279,13.29,0.037,241.4
2023-02-28T03:16:03,42.805,6.029,-0.041,-0.004,-0.045,106.0,104.0,105.0,13.4,1505.2,328.2,-0.7,1.8,2471.272,13.29,0.041,264.4
2023-02-28T03:19:03,42.805,6.029,-0.03,0.007,-0.02,107.0,104.0,103.0,13.4,1505.2,329.8,-0.8,1.8,2471.273,13.29,0.03,283.1
2023-02-28T03:22:03,42.805,6.029,-0.028,0.007,-0.002,107.0,106.0,104.0,13.4,1505.2,319.8,-0.8,1.8,2471.26,13.29,0.028,284.0
2023-02-28T03:25:03,42.805,6.029,-0.026,-0.003,-0.013,107.0,105.0,103.0,13.4,1505.2,337.5,-0.7,1.8,2471.263,13.29,0.026,263.4
2023-02-28T03:28:03,42.805,6.029,-0.046,0.008,-0.035,106.0,106.0,104.0,13.3,1505.2,332.2,-0.8,1.8,2471.255,13.29,0.046,279.9
2023-02-28T03:31:03,42.805,6.029,-0.027,-0.011,-0.033,107.0,106.0,104.0,13.3,1505.2,333.8,-0.8,1.8,2471.266,13.29,0.029,247.8
2023-02-28T03:34:03,42.805,6.029,-0.025,-0.005,-0.009,106.0,106.0,105.0,13.3,1505.2,322.9,-0.7,1.8,2471.251,13.29,0.025,258.7
2023-02-28T03:37:03,42.805,6.029,-0.041,-0.014,-0.01,107.0,103.0,104.0,13.3,1505.2,323.1,-0.7,1.8,2471.27,13.29,0.043,251.1
2023-02-28T03:40:03,42.805,6.029,-0.027,-0.015,-0.033,105.0,105.0,104.0,13.4,1505.2,318.8,-0.8,1.8,2471.29,13.29,0.03,240.9
2023-02-28T03:43:03,42.805,6.029,-0.032,-0.015,-0.062,106.0,106.0,104.0,13.4,1505.2,339.7,-0.8,1.8,2471.256,13.29,0.035,244.9
2023-02-28T03:46:03,42.805,6.029,-0.016,-0.02,-0.016,107.0,106.0,102.0,13.3,1505.2,318.0,-0.8,1.8,2471.275,13.29,0.025,218.7
2023-02-28T03:49:03,42.805,6.029,-0.021,-0.003,-0.008,106.0,106.0,104.0,13.4,1505.2,318.3,-0.7,1.8,2471.292,13.29,0.021,261.9
2023-02-28T03:52:03,42.805,6.029,-0.03,-0.029,-0.018,107.0,105.0,104.0,13.4,1505.2,320.5,-0.8,1.8,2471.274,13.29,0.041,226.0
2023-02-28T03:55:03,42.805,6.029,-0.02,-0.003,-0.01,105.0,106.0,105.0,13.4,1505.2,326.5,-0.7,1.8,2471.28,13.29,0.02,261.5
2023-02-28T03:58:03,42.805,6.029,-0.027,-0.012,-0.041,106.0,106.0,105.0,13.4,1505.2,338.3,-0.8,1.8,2471.251,13.29,0.029,246.0
2023-02-28T04:04:03,42.805,6.029,-0.015,-0.013,-0.026,106.0,106.0,104.0,13.4,1505.2,320.3,-0.8,1.8,2471.32,13.28,0.019,229.1
2023-02-28T04:07:03,42.805,6.029,-0.016,-0.021,0.006,106.0,105.0,105.0,13.4,1505.2,325.7,-0.8,1.8,2471.31,13.28,0.026,217.3
2023-02-28T04:10:03,42.805,6.029,-0.015,-0.02,-0.041,106.0,105.0,104.0,13.3,1505.2,324.4,-0.8,1.8,2471.334,13.29,0.025,216.9
2023-02-28T04:13:03,42.805,6.029,-0.007,-0.036,-0.046,106.0,105.0,105.0,13.4,1505.2,337.5,-0.8,1.8,2471.294,13.29,0.036,191.0
2023-02-28T04:16:03,42.805,6.029,-0.025,-0.014,-0.024,105.0,105.0,105.0,13.4,1505.2,319.9,-0.7,1.8,2471.3,13.29,0.028,240.7
2023-02-28T04:19:03,42.805,6.029,-0.039,-0.019,-0.031,106.0,106.0,104.0,13.3,1505.2,333.4,-0.8,1.8,2471.306,13.29,0.043,244.0
2023-02-28T04:22:03,42.805,6.029,-0.027,-0.014,-0.041,107.0,104.0,105.0,13.4,1505.2,340.2,-0.8,1.8,2471.299,13.29,0.03,242.6
2023-02-28T04:25:03,42.805,6.029,-0.042,-0.026,-0.034,106.0,105.0,105.0,13.3,1505.2,320.0,-0.8,1.8,2471.265,13.29,0.049,238.2
2023-02-28T04:28:03,42.805,6.029,-0.013,-0.026,-0.02,105.0,105.0,104.0,13.3,1505.2,325.4,-0.8,1.8,2471.266,13.29,0.029,206.6
2023-02-28T04:31:03,42.805,6.029,-0.048,-0.023,-0.059,106.0,104.0,104.0,13.4,1505.2,315.6,-0.8,1.8,2471.283,13.29,0.053,244.4
2023-02-28T04:34:03,42.805,6.029,-0.013,-0.034,-0.037,106.0,104.0,104.0,13.3,1505.2,321.0,-0.8,1.8,2471.232,13.29,0.036,200.9
2023-02-28T04:37:03,42.805,6.029,-0.007,-0.02,-0.022,107.0,106.0,105.0,13.4,1505.2,325.7,-0.7,1.8,2471.319,13.29,0.021,199.3
2023-02-28T04:40:03,42.805,6.029,-0.026,-0.021,-0.031,106.0,106.0,103.0,13.4,1505.2,334.8,-0.7,1.8,2471.262,13.29,0.033,231.1
2023-02-28T04:43:03,42.805,6.029,-0.017,-0.02,-0.007,105.0,105.0,103.0,13.3,1505.2,319.7,-0.7,1.8,2471.267,13.29,0.026,220.4
2023-02-28T04:46:03,42.805,6.029,-0.012,-0.023,-0.021,105.0,105.0,104.0,13.3,1505.2,315.0,-0.8,1.8,2471.311,13.29,0.025,207.6
2023-02-28T04:49:03,42.805,6.029,-0.032,-0.033,-0.037,105.0,105.0,104.0,13.4,1505.2,316.9,-0.8,1.8,2471.282,13.29,0.045,224.1
2023-02-28T04:52:03,42.805,6.029,-0.037,-0.007,-0.033,106.0,107.0,104.0,13.4,1505.2,328.5,-0.8,1.8,2471.272,13.29,0.037,259.3
2023-02-28T04:55:03,42.805,6.029,-0.035,-0.011,-0.008,107.0,105.0,104.0,13.4,1505.2,330.6,-0.8,1.8,2471.293,13.29,0.036,252.6
2023-02-28T04:58:03,42.805,6.029,-0.029,-0.003,-0.013,105.0,105.0,104.0,13.4,1505.2,340.6,-0.8,1.8,2471.265,13.29,0.029,264.1
2023-02-28T05:04:03,42.805,6.029,-0.023,-0.019,-0.006,106.0,106.0,104.0,13.3,1505.2,332.5,-0.8,1.8,2471.334,13.28,0.029,230.4
2023-02-28T05:07:03,42.805,6.029,-0.009,-0.036,-0.026,106.0,106.0,104.0,13.3,1505.2,324.4,-0.8,1.8,2471.3,13.28,0.037,194.0
2023-02-28T05:10:03,42.805,6.029,-0.014,-0.02,-0.008,107.0,106.0,105.0,13.4,1505.2,331.5,-0.7,1.8,2471.319,13.29,0.024,215.0
2023-02-28T05:13:03,42.805,6.029,0.0,-0.045,-0.031,106.0,105.0,104.0,13.4,1505.2,317.1,-0.8,1.8,2471.264,13.29,0.045,180.0
2023-02-28T05:16:03,42.805,6.029,-0.032,-0.027,-0.023,105.0,106.0,104.0,13.4,1505.2,332.5,-0.8,1.8,2471.286,13.29,0.041,229.8
2023-02-28T05:19:03,42.805,6.029,-0.032,-0.019,-0.004,106.0,105.0,104.0,13.4,1505.2,326.7,-0.8,1.8,2471.352,13.29,0.037,239.3
2023-02-28T05:22:03,42.805,6.029,-0.038,-0.021,-0.008,107.0,105.0,104.0,13.4,1505.2,320.9,-0.8,1.8,2471.318,13.29,0.043,241.1
2023-02-28T05:25:03,42.805,6.029,-0.032,-0.022,-0.008,106.0,107.0,104.0,13.4,1505.2,336.8,-0.8,1.8,2471.3,13.29,0.038,235.5
2023-02-28T05:28:03,42.805,6.029,0.0,-0.036,-0.006,107.0,106.0,105.0,13.4,1505.2,318.8,-0.8,1.8,2471.288,13.29,0.036,180.0
2023-02-28T05:31:03,42.805,6.029,-0.018,0.001,-0.007,106.0,106.0,105.0,13.3,1505.2,325.0,-0.8,1.8,2471.276,13.29,0.018,273.2
2023-02-28T05:34:03,42.805,6.029,-0.022,-0.032,-0.045,106.0,106.0,104.0,13.4,1505.2,317.8,-0.8,1.8,2471.295,13.29,0.038,214.5
2023-02-28T05:37:03,42.805,6.029,-0.027,-0.017,-0.022,106.0,106.0,104.0,13.4,1505.2,321.7,-0.8,1.8,2471.26,13.29,0.031,237.8
2023-02-28T05:40:03,42.805,6.029,-0.032,-0.039,-0.012,107.0,106.0,104.0,13.4,1505.2,316.8,-0.7,1.8,2471.287,13.29,0.05,219.4
2023-02-28T05:43:03,42.805,6.029,-0.027,-0.003,-0.018,106.0,107.0,104.0,13.4,1505.2,322.8,-0.7,1.8,2471.317,13.29,0.027,263.7
2023-02-28T05:46:03,42.805,6.029,-0.004,-0.031,-0.013,108.0,105.0,104.0,13.4,1505.2,316.8,-0.8,1.8,2471.268,13.29,0.031,187.3
2023-02-28T05:49:03,42.805,6.029,-0.034,-0.021,-0.032,108.0,106.0,105.0,13.3,1505.2,322.5,-0.8,1.8,2471.257,13.29,0.039,238.3
2023-02-28T05:52:03,42.805,6.029,-0.03,-0.043,-0.033,108.0,106.0,105.0,13.4,1505.2,317.8,-0.8,1.9,2471.27,13.29,0.052,214.9
2023-02-28T05:55:03,42.805,6.029,-0.017,-0.014,-0.014,107.0,106.0,104.0,13.4,1505.2,334.3,-0.8,1.8,2471.268,13.29,0.022,230.5
2023-02-28T05:58:03,42.805,6.029,-0.035,-0.016,-0.035,106.0,106.0,105.0,13.4,1505.2,326.5,-0.8,1.8,2471.286,13.29,0.038,245.4
2023-02-28T06:04:03,42.805,6.029,-0.017,-0.037,-0.036,106.0,106.0,106.0,13.4,1505.2,324.8,-0.8,1.8,2471.306,13.28,0.04,204.7
2023-02-28T06:07:03,42.805,6.029,-0.056,-0.014,-0.03,109.0,106.0,105.0,13.4,1505.2,326.0,-0.8,1.8,2471.336,13.28,0.057,256.0
2023-02-28T06:10:03,42.805,6.029,-0.019,-0.019,-0.037,108.0,106.0,104.0,13.4,1505.2,329.7,-0.8,1.8,2471.285,13.28,0.026,225.0
2023-02-28T06:13:03,42.805,6.029,-0.039,-0.012,-0.035,107.0,106.0,104.0,13.3,1505.2,330.1,-0.8,1.8,2471.306,13.29,0.04,252.9
2023-02-28T06:16:03,42.805,6.029,-0.035,-0.017,-0.038,107.0,106.0,104.0,13.4,1505.2,318.2,-0.8,1.8,2471.263,13.29,0.038,244.1
2023-02-28T06:19:03,42.805,6.029,-0.022,-0.013,-0.008,107.0,105.0,105.0,13.3,1505.2,314.4,-0.8,1.8,2471.279,13.29,0.025,239.4
2023-02-28T06:22:03,42.805,6.029,-0.042,0.021,-0.007,106.0,106.0,104.0,13.4,1505.2,331.6,-0.8,1.8,2471.288,13.29,0.046,296.6
2023-02-28T06:25:03,42.805,6.029,-0.023,0.003,-0.003,107.0,106.0,107.0,13.4,1505.2,329.3,-0.8,1.8,2471.234,13.29,0.023,277.4
2023-02-28T06:28:03,42.805,6.029,-0.043,-0.003,-0.009,107.0,105.0,105.0,13.4,1505.2,336.2,-0.7,1.8,2471.282,13.29,0.043,266.0
2023-02-28T06:31:03,42.805,6.029,-0.025,-0.006,-0.017,107.0,106.0,104.0,13.4,1505.2,330.7,-0.8,1.8,2471.263,13.29,0.025,256.5
2023-02-28T06:34:03,42.805,6.029,-0.026,0.001,-0.02,107.0,107.0,104.0,13.3,1505.2,333.8,-0.7,1.8,2471.228,13.29,0.026,272.2
2023-02-28T06:37:03,42.805,6.029,-0.038,-0.007,-0.02,107.0,106.0,105.0,13.4,1505.2,315.0,-0.7,1.8,2471.26,13.29,0.038,259.6
2023-02-28T06:40:03,42.805,6.029,-0.03,-0.008,-0.002,107.0,105.0,104.0,13.4,1505.2,324.4,-0.7,1.8,2471.245,13.29,0.031,255.1
2023-02-28T06:43:03,42.805,6.029,-0.039,-0.012,-0.034,109.0,107.0,105.0,13.4,1505.2,332.5,-0.8,1.8,2471.264,13.29,0.04,252.9
2023-02-28T06:46:03,42.805,6.029,-0.051,-0.01,-0.004,106.0,106.0,104.0,13.4,1505.2,328.8,-0.8,1.8,2471.29,13.29,0.051,258.9
2023-02-28T06:49:03,42.805,6.029,-0.015,-0.008,-0.034,107.0,106.0,105.0,13.4,1505.2,332.0,-0.8,1.9,2471.244,13.29,0.017,241.9
2023-02-28T06:52:03,42.805,6.029,-0.023,0.009,-0.022,107.0,106.0,106.0,13.4,1505.2,331.5,-0.8,1.8,2471.239,13.29,0.024,291.4
2023-02-28T06:55:03,42.805,6.029,-0.043,0.0,-0.013,106.0,107.0,104.0,13.4,1505.2,324.6,-0.8,1.8,2471.25,13.29,0.043,270.0
2023-02-28T06:58:03,42.805,6.029,-0.024,0.002,-0.021,107.0,106.0,104.0,13.3,1505.2,326.3,-0.8,1.8,2471.262,13.29,0.024,274.8
2023-02-28T07:04:03,42.805,6.029,-0.022,0.008,-0.012,107.0,107.0,105.0,13.4,1505.2,337.8,-0.8,1.8,2471.31,13.28,0.023,290.0
2023-02-28T07:07:03,42.805,6.029,-0.067,-0.003,-0.049,106.0,106.0,105.0,13.4,1505.2,317.2,-0.8,1.9,2471.309,13.28,0.067,267.4
2023-02-28T07:10:03,42.805,6.029,-0.029,0.004,-0.012,107.0,107.0,106.0,13.4,1505.2,327.9,-0.8,1.8,2471.314,13.29,0.029,277.8
2023-02-28T07:13:03,42.805,6.029,-0.047,-0.016,-0.021,107.0,108.0,104.0,13.4,1505.2,320.7,-0.7,1.8,2471.273,13.29,0.049,251.2
2023-02-28T07:16:03,42.805,6.029,-0.058,0.011,-0.026,107.0,106.0,104.0,13.4,1505.2,324.2,-0.8,1.8,2471.287,13.29,0.059,280.7
2023-02-28T07:19:03,42.805,6.029,-0.04,0.024,-0.036,108.0,105.0,104.0,13.4,1505.2,335.8,-0.8,1.8,2471.258,13.29,0.046,301.0
2023-02-28T07:22:03,42.805,6.029,-0.043,0.005,-0.015,107.0,107.0,105.0,13.4,1505.2,334.8,-0.8,1.8,2471.26,13.29,0.043,276.6
2023-02-28T07:25:03,42.805,6.029,-0.03,0.007,0.006,107.0,107.0,103.0,13.3,1505.2,329.3,-0.8,1.8,2471.245,13.29,0.03,283.1
2023-02-28T07:28:03,42.805,6.029,-0.033,0.012,0.02,107.0,106.0,105.0,13.4,1505.2,321.8,-0.7,1.8,2471.273,13.29,0.035,290.0
2023-02-28T07:31:03,42.805,6.029,-0.026,0.008,-0.029,107.0,107.0,104.0,13.4,1505.2,315.0,-0.8,1.8,2471.218,13.29,0.027,287.1
2023-02-28T07:34:03,42.805,6.029,-0.033,0.005,-0.012,107.0,107.0,104.0,13.3,1505.2,333.0,-0.8,1.8,2471.269,13.29,0.033,278.6
2023-02-28T07:37:03,42.805,6.029,-0.041,-0.011,-0.012,105.0,106.0,104.0,13.4,1505.2,320.7,-0.8,1.8,2471.273,13.29,0.042,255.0
2023-02-28T07:40:03,42.805,6.029,-0.035,0.023,0.0,106.0,105.0,104.0,13.4,1505.2,330.0,-0.7,1.8,2471.23,13.29,0.041,303.3
2023-02-28T07:43:03,42.805,6.029,-0.027,0.013,-0.055,106.0,106.0,104.0,13.3,1505.2,320.4,-0.8,1.8,2471.266,13.29,0.029,295.7
2023-02-28T07:46:03,42.805,6.029,-0.042,0.025,-0.007,107.0,106.0,106.0,13.4,1505.2,322.2,-0.8,1.8,2471.263,13.29,0.048,300.8
2023-02-28T07:49:03,42.805,6.029,-0.031,0.005,-0.024,108.0,106.0,103.0,13.3,1505.2,318.0,-0.8,1.8,2471.248,13.29,0.031,279.2
2023-02-28T07:52:03,42.805,6.029,-0.044,0.014,-0.01,107.0,107.0,104.0,13.4,1505.2,328.3,-0.8,1.8,2471.235,13.29,0.046,287.6
2023-02-28T07:55:03,42.805,6.029,-0.03,0.005,-0.018,107.0,105.0,104.0,13.4,1505.2,330.6,-0.8,1.8,2471.21,13.29,0.03,279.5
2023-02-28T07:58:03,42.805,6.029,-0.003,0.013,-0.012,106.0,106.0,103.0,13.4,1505.2,329.2,-0.8,1.8,2471.239,13.29,0.013,347.0
2023-02-28T08:04:03,42.805,6.029,-0.031,0.011,-0.024,105.0,106.0,104.0,13.4,1505.2,328.0,-0.8,1.9,2471.309,13.28,0.032,289.5
2023-02-28T08:07:03,42.805,6.029,-0.041,0.002,-0.021,106.0,106.0,104.0,13.4,1505.2,322.2,-0.8,1.8,2471.3,13.29,0.041,272.8
2023-02-28T08:10:03,42.805,6.029,-0.032,0.014,-0.013,106.0,105.0,103.0,13.3,1505.2,324.6,-0.8,1.8,2471.265,13.29,0.034,293.6
2023-02-28T08:13:03,42.805,6.029,-0.019,-0.009,-0.009,107.0,106.0,104.0,13.4,1505.2,316.7,-0.7,1.8,2471.258,13.29,0.021,244.7
2023-02-28T08:16:03,42.805,6.029,-0.025,-0.001,-0.007,105.0,105.0,103.0,13.3,1505.2,321.3,-0.8,1.8,2471.277,13.29,0.025,267.7
2023-02-28T08:19:03,42.805,6.029,-0.029,0.015,-0.014,106.0,106.0,104.0,13.3,1505.2,330.0,-0.7,1.8,2471.272,13.29,0.032,297.4
2023-02-28T08:22:03,42.805,6.029,-0.031,0.024,0.015,107.0,105.0,105.0,13.4,1505.2,335.7,-0.8,1.8,2471.252,13.29,0.039,307.7
2023-02-28T08:25:03,42.805,6.029,-0.026,0.022,-0.002,106.0,106.0,103.0,13.4,1505.2,319.8,-0.8,1.8,2471.267,13.29,0.034,310.2
2023-02-28T08:28:03,42.805,6.029,-0.028,0.014,-0.018,106.0,104.0,105.0,13.4,1505.2,322.4,-0.7,1.8,2471.227,13.29,0.031,296.6
2023-02-28T08:31:03,42.805,6.029,-0.023,0.025,-0.042,105.0,105.0,104.0,13.4,1505.2,322.3,-0.8,1.8,2471.221,13.29,0.033,317.4
2023-02-28T08:34:03,42.805,6.029,-0.034,0.03,-0.059,106.0,105.0,104.0,13.3,1505.2,325.7,-0.7,1.8,2471.219,13.29,0.045,311.4
2023-02-28T08:37:03,42.805,6.029,-0.024,0.021,-0.052,105.0,105.0,104.0,13.4,1505.2,339.3,-0.7,1.8,2471.261,13.29,0.031,311.2
2023-02-28T08:40:03,42.805,6.029,-0.032,0.031,-0.014,106.0,104.0,104.0,13.4,1505.2,333.4,-0.8,1.8,2471.278,13.29,0.044,314.1
2023-02-28T08:43:03,42.805,6.029,-0.031,0.028,-0.013,106.0,106.0,104.0,13.4,1505.2,331.1,-0.7,1.9,2471.218,13.29,0.041,312.1
2023-02-28T08:46:03,42.805,6.029,-0.028,0.014,-0.01,105.0,104.0,104.0,13.4,1505.2,335.9,-0.7,1.8,2471.246,13.29,0.031,296.6
2023-02-28T08:49:03,42.805,6.029,-0.009,0.021,0.013,105.0,105.0,105.0,13.4,1505.2,331.1,-0.8,1.8,2471.273,13.29,0.022,336.8
2023-02-28T08:52:03,42.805,6.029,-0.021,0.02,-0.01,106.0,105.0,104.0,13.4,1505.2,331.5,-0.8,1.8,2471.212,13.29,0.028,313.6
2023-02-28T08:55:03,42.805,6.029,-0.027,0.02,-0.008,107.0,107.0,104.0,13.4,1505.2,336.9,-0.8,1.8,2471.226,13.29,0.033,306.5
2023-02-28T08:58:03,42.805,6.029,-0.016,0.01,-0.006,106.0,106.0,103.0,13.4,1505.2,322.1,-0.8,1.8,2471.242,13.29,0.018,302.0
2023-02-28T09:04:03,42.805,6.029,0.004,-0.01,-0.014,106.0,107.0,106.0,13.4,1505.2,338.3,-0.8,1.8,2471.25,13.28,0.01,158.2
2023-02-28T09:07:03,42.805,6.029,-0.02,0.002,-0.04,106.0,106.0,105.0,13.4,1505.2,339.3,-0.8,1.8,2471.275,13.29,0.02,275.7
2023-02-28T09:10:03,42.805,6.029,-0.02,0.019,-0.04,107.0,105.0,103.0,13.4,1505.2,336.8,-0.8,1.8,2471.28,13.29,0.027,313.5
2023-02-28T09:13:03,42.805,6.029,-0.019,0.009,-0.02,108.0,106.0,104.0,13.3,1505.2,332.4,-0.8,1.8,2471.293,13.29,0.021,295.3
2023-02-28T09:16:03,42.805,6.029,-0.021,0.021,-0.006,107.0,106.0,104.0,13.4,1505.2,321.0,-0.7,1.8,2471.266,13.29,0.029,315.0
2023-02-28T09:19:03,42.805,6.029,-0.028,0.027,-0.005,106.0,106.0,103.0,13.4,1505.2,322.9,-0.8,1.8,2471.234,13.29,0.038,314.0
2023-02-28T09:22:03,42.805,6.029,-0.052,0.01,0.004,104.0,106.0,104.0,13.4,1505.2,315.0,-0.8,1.8,2471.233,13.29,0.052,280.9
2023-02-28T09:25:03,42.805,6.029,-0.029,0.001,-0.02,106.0,106.0,104.0,13.4,1505.2,318.8,-0.8,1.8,2471.281,13.29,0.029,272.0
2023-02-28T09:28:03,42.805,6.029,0.002,0.006,-0.008,106.0,107.0,103.0,13.3,1505.2,325.4,-0.8,1.8,2471.262,13.29,0.006,18.4
2023-02-28T09:31:03,42.805,6.029,-0.012,0.012,-0.018,108.0,105.0,104.0,13.3,1505.2,329.7,-0.8,1.8,2471.24,13.29,0.016,315.0
2023-02-28T09:34:03,42.805,6.029,-0.009,0.013,-0.022,107.0,107.0,106.0,13.3,1505.2,331.5,-0.8,1.8,2471.26,13.29,0.015,325.3
2023-02-28T09:37:03,42.805,6.029,-0.036,0.02,-0.026,105.0,105.0,103.0,13.4,1505.2,331.6,-0.8,1.8,2471.256,13.29,0.041,299.1
2023-02-28T09:40:03,42.805,6.029,-0.04,0.022,-0.011,106.0,105.0,104.0,13.3,1505.2,341.2,-0.8,1.8,2471.255,13.29,0.045,298.8
2023-02-28T09:43:03,42.805,6.029,-0.017,0.005,-0.006,108.0,106.0,104.0,13.4,1505.2,324.2,-0.8,1.8,2471.274,13.29,0.017,286.4
2023-02-28T09:46:03,42.805,6.029,-0.018,0.033,-0.007,107.0,106.0,103.0,13.4,1505.2,331.1,-0.8,1.8,2471.283,13.29,0.037,331.4
2023-02-28T09:49:03,42.805,6.029,-0.016,0.02,0.005,108.0,107.0,104.0,13.4,1505.2,332.0,-0.8,1.8,2471.227,13.29,0.025,321.3
2023-02-28T09:52:03,42.805,6.029,-0.013,0.015,0.017,107.0,106.0,104.0,13.4,1505.2,325.7,-0.7,1.8,2471.234,13.29,0.019,319.1